Sofia Airport

Airport
ICAO code: 
LBSF
IATA Code: 
SOF
Summary
ICAO Region: 
EUR
Territory: 
Location: 
Sofia, Sofia-Capital
Serving: 
Sofia
Elevation: 
1742 ft
Coordinates: 
Aerial View: 
42° 41' 43.692" N, 23° 24' 56.808" E
Airport RE: 
Aquaplaning
Airport WX: 
Cumulonimbus
Metar
Observation
LBSF 180930Z 28016KT 9999 SCT033 00/M05 Q1027 NOSIG
Station
Sofia Observ.
Date/Time
2022-01-18 09:30:00
Wind direction
280°
Wind speed
16 kts
Lowest cloud amount
scattered clouds
Temperature
0°C
Dew point
-5°C
Humidity
68%
QNH
1027 hPa
Weather condition
n/a

International airport serving the capital of Bulgaria.

Climatology

Humid “subtropical” climate (Köppen climate classification Cfa)

Runways

Designator Length Width Surface Rops
9/27 2800 45 ASP Yes/Yes
Airport map: 
Aerial View: 

Accidents and Serious Incidents at or in the vicinity of LBSF

SKYbrary Partners:

Safety knowledge contributed by: